Wind_Speed
16 16 17 17 17 17 17 17 16 16 17 17 18 18 18 19 19 20 20 21 20 20 21 21 22 23 24 24 24 25 23 24 23 23 22 21 20 20 16 17 16 17 18 18 18
22 21 21 21 22 23 23 23 23 23 22 22 23 22 22 22 23 23 23 24 24 24 24 24 25 26 27 28 27 29 27 27 28 28 27 26 25 27 21 22 20 23 21 21 22
28 28 27 27 28 28 28 28 28 28 27 27 27 26 24 23 25 25 25 25 24 25 26 26 28 29 29 30 30 30 28 30 30 31 32 31 29 30 28 21 26 29 28 23 24
35 35 35 34 34 34 34 34 33 32 32 31 30 28 26 25 27 28 27 27 26 26 28 28 28 29 31 32 33 32 30 33 30 35 34 34 33 31 31 24 29 30 30 26 27
41 41 40 40 39 37 37 37 36 36 36 35 34 32 27 22 29 30 29 29 29 28 29 30 29 31 32 33 35 32 31 32 32 34 36 36 33 36 27 28 32 30 30 31 32
36 37 37 37 37 36 36 36 35 34 34 33 33 33 31 24 31 33 32 32 33 32 33 33 34 36 35 34 36 36 33 31 30 30 34 37 35 36 19 31 32 29 29 28 29
38 37 37 37 37 37 36 36 35 34 35 36 37 36 32 29 34 38 40 39 38 37 35 36 37 40 39 36 37 39 37 33 24 28 35 40 40 27 24 33 31 29 29 30 29
42 41 40 39 39 38 39 39 37 38 38 41 42 44 41 37 40 41 44 42 42 41 41 40 44 44 41 37 41 40 41 35 22 31 38 44 45 23 31 35 32 34 32 31 31
44 43 43 42 42 42 43 43 43 43 44 46 47 48 45 39 39 41 42 42 44 43 44 44 47 47 42 40 47 40 46 45 40 30 40 45 49 31 35 40 40 37 36 34 32
47 47 46 46 45 45 45 46 47 47 47 48 50 49 49 43 42 40 40 41 43 45 46 47 51 50 43 42 49 45 49 48 45 31 40 49 50 44 37 42 43 41 39 39 36
51 52 51 50 51 50 50 50 51 52 51 51 52 52 50 49 47 43 40 41 44 44 45 48 53 49 41 43 47 51 51 50 45 39 49 50 52 45 38 35 35 36 38 38 38
53 54 55 53 53 53 53 54 54 54 54 51 50 54 53 52 50 45 44 44 44 45 45 47 52 44 47 47 49 51 51 52 52 48 54 54 52 48 43 38 34 30 32 30 30
57 55 55 54 54 53 52 54 54 54 58 54 54 55 54 53 53 49 48 44 43 44 44 48 48 48 50 51 50 50 52 52 56 51 53 55 55 50 41 36 34 38 35 36 32
60 59 57 56 53 52 52 52 54 54 59 60 59 56 54 56 54 49 49 45 43 41 37 48 40 43 47 51 43 52 43 48 51 56 57 55 53 48 42 42 40 40 41 31 30
54 58 58 56 53 53 52 54 55 57 61 59 59 57 50 45 44 41 45 45 44 45 46 46 46 44 47 47 51 53 54 52 52 56 59 57 60 54 55 48 42 37 37 43 36
52 52 54 54 50 51 57 60 59 59 65 62 62 61 60 56 53 52 55 55 54 53 51 47 50 54 47 49 52 54 55 57 57 58 61 58 59 45 56 57 59 57 50 50 54
56 53 50 55 56 56 53 53 57 63 66 66 63 58 57 58 59 56 55 53 55 59 55 56 55 54 53 53 54 53 55 59 63 66 64 63 64 56 63 60 66 65 65 66 60
59 61 57 54 54 55 57 55 57 63 62 61 61 59 58 58 60 59 60 60 59 61 64 65 61 61 61 56 57 57 57 61 65 66 68 67 74 68 63 62 67 67 68 67 69
67 64 62 64 63 60 60 65 65 62 65 67 68 65 64 64 62 64 64 63 64 63 60 64 69 69 66 63 61 62 60 54 60 61 68 75 75 73 68 66 67 68 70 70 68
78 69 74 70 69 69 69 72 72 70 62 70 75 77 75 71 71 71 71 70 69 69 67 68 70 67 70 68 69 65 62 62 60 63 65 65 64 69 72 70 67 68 65 62 58
70 70 69 69 68 70 77 81 76 75 75 73 74 77 82 79 78 72 75 74 71 72 72 73 74 76 78 76 73 73 74 74 73 73 76 76 73 49 55 65 69 61 58 59 57
71 72 70 70 72 71 72 70 69 67 71 70 70 72 73 77 77 71 75 76 71 70 74 74 75 74 78 76 75 75 76 74 67 72 70 65 67 61 47 44 49 54 59 51 41
69 66 66 66 71 71 70 69 68 67 68 70 70 70 69 72 74 79 72 65 65 66 69 70 70 72 73 74 74 63 60 70 74 71 73 75 76 65 59 58 59 62 62 56 58
69 70 70 70 69 70 70 70 69 66 68 70 69 67 67 69 69 72 71 74 71 71 70 71 72 74 70 68 74 76 74 70 71 74 74 71 69 63 57 57 59 62 68 70 65
70 70 70 71 70 69 69 69 69 67 67 66 67 66 66 66 69 70 70 69 69 67 65 64 70 67 72 75 73 73 70 67 65 65 67 66 70 69 66 70 72 70 77 81 83
69 69 71 70 68 69 67 68 67 64 65 67 69 67 66 68 66 67 67 66 65 63 62 59 66 67 69 66 65 72 75 76 64 60 70 73 77 71 71 65 61 65 75 79 79
67 70 71 70 71 70 69 68 68 66 66 67 68 67 67 68 68 68 68 66 66 65 63 67 68 69 76 73 79 84 76 69 67 66 67 66 68 66 62 65 66 71 67 71 79
Wind_Direction
254 254 251 254 263 271 280 283 284 286 289 291 290 290 291 294 296 296 298 296 297 298 297 298 300 298 298 299 299 298 302 302 304 304 304 305 304 302 303 304 300 305 305 307 310
256 257 257 260 267 274 279 283 286 287 289 290 289 288 289 290 291 292 292 294 295 294 292 293 293 292 292 292 292 293 297 295 299 298 297 297 295 294 298 297 281 292 290 295 296
261 263 265 267 270 273 275 279 282 283 283 284 284 284 285 288 288 290 290 291 292 293 291 290 289 290 289 290 287 293 294 291 293 291 292 291 290 292 294 290 279 287 291 293 284
264 266 267 269 270 272 275 277 278 280 279 280 281 280 282 286 287 283 287 289 291 292 293 292 292 290 287 288 288 292 291 288 290 291 292 287 287 288 293 287 280 285 286 280 269
262 263 265 266 267 268 269 270 272 274 275 277 278 278 280 286 281 285 286 287 287 290 292 294 295 289 290 290 289 291 286 288 288 291 290 287 287 285 297 287 281 285 286 283 277
261 262 264 264 266 267 268 269 269 270 271 272 272 274 275 279 279 285 284 284 285 288 289 290 290 290 288 289 290 290 290 290 292 293 288 284 279 290 300 277 282 286 287 288 283
263 263 264 265 265 267 268 268 269 270 271 273 273 273 273 276 278 279 281 281 281 281 282 283 286 286 286 289 289 288 287 288 295 286 280 277 279 297 287 274 279 280 291 294 291
260 262 262 263 265 266 268 269 271 272 273 274 276 276 276 276 276 275 274 276 277 277 277 278 280 280 285 290 290 288 288 289 274 268 276 279 284 283 280 277 275 278 281 286 284
262 262 262 262 264 265 267 268 269 270 272 274 275 277 279 278 275 274 275 275 275 275 274 274 276 278 281 288 285 293 290 284 280 286 287 283 284 285 274 272 273 274 277 278 278
263 263 264 264 263 264 265 266 269 270 271 274 275 278 279 280 278 274 274 276 275 275 274 276 274 274 279 285 287 286 283 286 289 294 286 282 281 278 271 272 277 281 281 279 278
262 264 264 265 266 267 268 267 270 271 272 273 276 278 280 279 277 275 275 272 273 272 275 272 274 277 283 277 278 280 283 286 290 292 284 279 280 285 285 282 286 287 284 279 278
264 263 264 264 264 266 268 269 270 270 271 272 276 280 278 279 279 278 274 270 268 269 268 272 274 279 273 272 273 277 282 284 287 288 281 283 282 284 290 294 297 288 288 281 279
264 263 264 264 266 265 266 268 269 270 273 272 275 278 277 277 280 282 277 274 271 270 273 269 273 273 274 273 273 275 277 282 279 279 278 285 284 287 289 293 290 291 286 291 284
265 257 261 263 264 266 266 266 267 267 271 274 274 273 276 276 278 278 278 273 272 273 272 270 273 276 277 274 276 270 272 270 275 277 281 281 283 286 292 293 291 289 292 279 275
260 260 261 259 260 263 267 268 268 271 271 272 274 278 279 277 277 276 271 270 271 274 274 276 276 273 271 275 271 273 271 271 270 272 274 276 284 298 302 300 294 291 289 289 272
262 264 262 258 261 269 269 265 268 271 267 270 276 279 278 275 275 275 271 271 272 271 278 279 273 273 278 276 276 275 273 272 269 267 267 274 279 279 290 294 299 296 290 285 283
265 266 258 255 260 267 268 270 270 266 267 270 272 273 275 274 277 275 272 270 274 277 281 281 275 274 279 278 280 277 274 273 271 268 272 275 274 277 279 286 290 290 289 289 286
264 267 263 261 257 264 268 265 266 267 273 269 267 268 268 273 276 278 277 273 274 278 279 281 277 274 279 279 277 276 274 275 276 280 278 273 270 273 278 280 283 282 281 286 289
263 259 260 261 260 265 273 268 266 269 273 271 269 267 265 269 275 275 275 271 272 276 278 278 274 276 278 277 277 276 272 278 272 270 271 272 275 277 280 278 277 278 278 280 285
278 278 264 272 275 271 269 267 269 269 277 274 270 268 264 269 273 273 274 271 275 277 279 276 274 271 275 278 277 276 275 272 271 275 273 275 269 277 286 282 278 277 277 282 282
273 272 273 271 272 270 271 274 276 273 279 281 277 275 271 276 276 278 277 274 275 277 278 279 280 278 277 277 281 278 277 278 277 277 281 284 279 277 274 272 276 272 270 273 276
271 271 271 268 265 267 269 274 274 274 273 274 276 278 280 277 276 274 275 277 276 277 277 278 283 280 276 276 278 277 279 281 283 286 284 282 273 279 274 268 264 272 278 274 265
274 272 270 267 267 272 272 272 270 270 273 274 271 272 272 273 272 276 273 274 275 274 274 275 272 277 278 278 277 274 274 277 280 282 280 281 283 289 285 271 261 274 272 258 252
273 274 274 274 275 273 272 271 270 270 270 270 271 271 272 272 272 275 275 277 274 274 271 271 272 272 270 265 272 271 273 274 274 275 280 276 281 278 276 261 266 256 252 257 261
274 275 274 273 273 273 272 272 271 272 270 268 268 269 270 271 271 272 273 272 272 273 273 272 273 272 271 273 272 272 272 269 271 278 275 280 276 276 270 263 256 252 251 252 256
278 278 276 275 274 272 271 272 270 269 266 265 268 269 270 271 271 271 271 272 272 271 274 273 271 276 272 269 271 272 273 279 271 263 266 264 268 267 263 263 264 262 257 254 261
276 276 275 275 274 273 273 272 270 267 265 267 266 268 268 270 271 272 272 272 273 273 272 272 273 273 265 268 272 271 276 274 265 264 267 270 263 269 273 268 266 262 258 263 266
Height
5879 5880 5881 5881 5881 5881 5881 5881 5882 5882 5881 5881 5881 5881 5880 5880 5879 5878 5878 5878 5877 5875 5874 5873 5872 5871 5870 5868 5867 5866 5866 5864 5864 5863 5862 5861 5859 5857 5857 5856 5855 5854 5852 5850 5849
5876 5877 5877 5878 5878 5878 5878 5878 5878 5878 5878 5878 5877 5877 5877 5876 5875 5875 5874 5873 5872 5871 5871 5870 5868 5867 5866 5864 5863 5861 5861 5860 5859 5858 5857 5856 5855 5853 5854 5851 5850 5849 5848 5847 5845
5872 5873 5873 5874 5874 5874 5874 5874 5874 5874 5874 5873 5873 5872 5872 5872 5871 5870 5869 5868 5867 5866 5865 5865 5863 5862 5860 5858 5857 5858 5857 5853 5853 5851 5850 5849 5849 5848 5848 5847 5842 5842 5842 5843 5841
5866 5867 5868 5868 5868 5869 5869 5869 5869 5869 5868 5868 5868 5868 5868 5868 5867 5864 5864 5863 5862 5861 5860 5859 5859 5856 5855 5852 5850 5852 5851 5847 5849 5844 5843 5841 5842 5842 5842 5841 5836 5836 5835 5835 5833
5860 5861 5861 5862 5862 5862 5862 5862 5863 5863 5862 5862 5861 5861 5863 5865 5860 5860 5859 5858 5857 5856 5855 5853 5853 5849 5849 5847 5843 5844 5844 5842 5841 5840 5836 5832 5835 5832 5838 5831 5829 5829 5828 5826 5825
5852 5853 5854 5855 5855 5855 5855 5856 5856 5856 5855 5855 5855 5855 5857 5861 5855 5853 5853 5852 5851 5850 5849 5847 5845 5843 5842 5841 5837 5836 5837 5837 5837 5834 5828 5824 5826 5824 5833 5822 5823 5822 5820 5818 5818
5845 5846 5847 5848 5848 5849 5849 5848 5848 5848 5848 5848 5847 5847 5850 5854 5851 5848 5845 5845 5845 5843 5842 5840 5837 5834 5833 5835 5832 5829 5828 5828 5832 5827 5820 5814 5816 5822 5822 5814 5815 5815 5812 5811 5810
5837 5838 5839 5839 5841 5841 5841 5841 5842 5841 5840 5839 5838 5837 5841 5846 5843 5841 5838 5838 5837 5836 5834 5832 5827 5824 5826 5827 5822 5821 5818 5820 5826 5819 5813 5807 5804 5818 5812 5807 5808 5807 5806 5805 5804
5829 5830 5830 5831 5832 5833 5832 5832 5832 5833 5832 5830 5829 5827 5831 5836 5835 5832 5831 5830 5828 5828 5826 5824 5818 5817 5820 5820 5811 5816 5806 5806 5809 5817 5806 5800 5793 5809 5805 5799 5798 5798 5798 5798 5797
5819 5820 5821 5822 5822 5823 5823 5823 5822 5823 5822 5822 5819 5820 5820 5824 5824 5823 5822 5821 5819 5818 5816 5816 5809 5807 5813 5812 5803 5803 5796 5796 5797 5810 5798 5786 5782 5789 5795 5791 5791 5792 5791 5789 5787
5809 5810 5811 5812 5813 5814 5814 5814 5814 5813 5812 5813 5810 5810 5810 5809 5810 5813 5814 5811 5808 5807 5807 5803 5800 5801 5807 5800 5797 5791 5789 5787 5791 5793 5780 5776 5769 5774 5780 5782 5784 5783 5781 5779 5776
5798 5799 5800 5800 5801 5802 5803 5803 5801 5800 5798 5801 5802 5798 5798 5797 5796 5799 5801 5800 5798 5798 5794 5794 5787 5798 5792 5789 5786 5784 5781 5778 5778 5781 5772 5766 5759 5765 5770 5771 5773 5772 5769 5769 5769
5785 5787 5788 5789 5789 5789 5790 5791 5790 5789 5786 5791 5789 5787 5788 5787 5787 5788 5785 5787 5787 5785 5787 5781 5781 5782 5781 5779 5777 5776 5773 5772 5764 5765 5763 5758 5745 5755 5765 5764 5763 5761 5762 5759 5758
5772 5774 5775 5776 5777 5778 5778 5778 5778 5778 5775 5775 5776 5778 5779 5778 5778 5774 5775 5775 5774 5774 5773 5769 5777 5773 5768 5765 5766 5761 5764 5759 5757 5754 5747 5750 5732 5744 5754 5758 5758 5754 5752 5752 5748
5760 5762 5762 5762 5763 5763 5766 5766 5767 5767 5763 5761 5759 5762 5766 5768 5767 5766 5763 5763 5761 5762 5762 5762 5763 5760 5757 5760 5753 5752 5749 5750 5747 5745 5742 5736 5735 5733 5733 5742 5744 5746 5747 5743 5741
5749 5748 5749 5751 5751 5750 5751 5750 5752 5756 5743 5749 5749 5751 5752 5753 5755 5753 5751 5749 5750 5748 5748 5750 5750 5747 5746 5744 5743 5741 5737 5734 5733 5730 5729 5731 5728 5725 5730 5722 5723 5727 5729 5730 5723
5737 5737 5737 5739 5739 5738 5738 5738 5740 5737 5736 5737 5737 5737 5738 5736 5734 5734 5737 5738 5735 5732 5733 5735 5734 5734 5731 5729 5731 5727 5724 5718 5713 5712 5719 5721 5716 5718 5717 5719 5717 5714 5709 5706 5710
5722 5724 5727 5726 5723 5721 5721 5724 5723 5724 5725 5726 5724 5723 5722 5721 5720 5717 5716 5719 5721 5718 5717 5714 5718 5718 5718 5716 5713 5711 5709 5705 5696 5699 5699 5703 5696 5704 5710 5710 5704 5701 5699 5696 5691
5708 5708 5711 5715 5709 5705 5703 5704 5713 5716 5715 5714 5712 5708 5711 5709 5704 5702 5701 5703 5703 5703 5701 5695 5699 5700 5700 5697 5700 5701 5694 5695 5680 5679 5672 5682 5684 5691 5699 5696 5693 5692 5689 5684 5683
5688 5690 5698 5695 5690 5686 5681 5687 5695 5702 5701 5695 5693 5691 5695 5692 5686 5683 5682 5691 5688 5687 5682 5676 5673 5683 5679 5682 5681 5678 5681 5673 5669 5657 5652 5653 5665 5672 5685 5683 5676 5675 5675 5676 5672
5672 5672 5680 5678 5672 5668 5665 5672 5675 5683 5677 5675 5675 5669 5675 5673 5668 5665 5659 5669 5672 5670 5666 5657 5655 5666 5658 5663 5664 5658 5655 5657 5649 5644 5635 5633 5635 5668 5670 5666 5658 5660 5659 5657 5656
5655 5656 5661 5659 5653 5651 5652 5660 5662 5665 5663 5654 5651 5652 5651 5655 5646 5646 5645 5648 5654 5650 5646 5645 5633 5630 5642 5648 5643 5637 5637 5637 5625 5625 5620 5614 5612 5648 5654 5652 5647 5644 5642 5640 5635
5633 5637 5640 5636 5630 5633 5637 5639 5638 5644 5646 5638 5632 5632 5634 5631 5624 5626 5632 5637 5633 5632 5628 5629 5619 5611 5613 5626 5627 5618 5624 5618 5612 5604 5597 5594 5594 5618 5624 5631 5636 5628 5620 5610 5608
5616 5615 5618 5614 5619 5617 5618 5619 5619 5627 5624 5619 5616 5616 5613 5609 5611 5605 5610 5610 5612 5613 5613 5610 5604 5602 5599 5601 5606 5600 5601 5605 5598 5584 5582 5577 5578 5589 5598 5603 5605 5596 5588 5592 5591
5598 5597 5597 5598 5602 5600 5599 5597 5602 5606 5604 5603 5595 5597 5595 5587 5590 5590 5591 5593 5594 5593 5591 5591 5581 5585 5582 5578 5576 5574 5577 5582 5577 5571 5561 5562 5560 5566 5569 5565 5569 5571 5568 5567 5568
5579 5579 5578 5581 5580 5580 5583 5582 5580 5588 5581 5581 5573 5580 5578 5572 5569 5571 5573 5574 5576 5573 5572 5571 5562 5561 5559 5565 5558 5553 5557 5563 5557 5555 5547 5543 5543 5535 5537 5540 5544 5544 5545 5544 5542
5562 5560 5556 5561 5561 5560 5566 5562 5562 5562 5565 5561 5559 5558 5560 5555 5553 5550 5551 5554 5555 5555 5558 5552 5549 5546 5534 5547 5537 5525 5547 5541 5537 5529 5525 5520 5519 5521 5523 5525 5523 5521 5522 5523 5520